Flag for Kazakhstan Weather past 2 weeks in Astana, Kazakhstan

Now
72 °F

Sunny.


Feels Like: 76 °F
Forecast: 48 / 67 °F
Wind: 17 mph from Southwest

Location: Astana

Current Time: Apr 21, 2015 at 12:57:22 PM

Latest Report: Apr 21, 2015 at 12:30 PM


Visibility: 10 mi

Pressure: 29.89 "Hg

Humidity: 29%

Dew point: 37 °F

Location of AstanaLocation

Historic Weather in Astana — Graph

°F

Astana temperature yesterday

Maximum temperature yesterday: 70 °F (at 1:30 PM)
Minimum temperature yesterday: 37 °F (at 6:00 AM)
Average temperature yesterday: 54 °F

Past Weeks' High & Low Weather Summary

 TemperatureHumidityPressure
High70 °F (Apr 20, 1:30 PM)100% (Apr 8, 1:30 AM)30.42 "Hg (Apr 8, 1:30 AM)
Low19 °F (Apr 7, 2:00 AM)28% (Apr 20, 6:30 PM)29.62 "Hg (Apr 15, 5:30 PM)
Average41 °F77%30.03 "Hg
* Reported Apr 6 11:00 AM — Apr 21 11:30 AM, Astana, Weather by CustomWeather, © 2015

Note: Actual official high and low records may vary slightly from our data, if they occured in-between our weather recording intervals... More about our weather records

Advertising

Astana weather history for previous 24 hours

 ConditionsComfort  
Time TempWeatherWind HumidityBarometerVisibility
11:30 AM
Tue, Apr 21
70 °FSunny.17 mph31%29.89 "Hg10 mi
11:00 AM68 °FSunny.13 mph40%29.89 "Hg10 mi
10:30 AM66 °FPassing clouds.13 mph40%29.89 "HgN/A
10:00 AM64 °FSunny.13 mph43%29.89 "Hg10 mi
9:30 AM59 °FSunny.10 mph51%29.89 "Hg10 mi
8:30 AM54 °FSunny.10 mph63%29.89 "Hg10 mi
8:00 AM48 °FSunny.8 mph71%29.89 "Hg10 mi
7:30 AM45 °FSunny.10 mph81%29.89 "Hg10 mi
7:00 AM43 °FClear.10 mph81%29.89 "Hg10 mi
6:30 AM41 °FClear.8 mph87%29.89 "Hg10 mi
6:00 AM43 °FClear.8 mph81%29.89 "Hg10 mi
5:30 AM41 °FClear.8 mph81%29.89 "Hg10 mi
5:00 AM43 °FClear.8 mph81%29.89 "Hg10 mi
4:30 AM45 °FClear.8 mph76%29.92 "Hg10 mi
4:00 AM43 °FClear.6 mph81%29.92 "Hg10 mi
3:30 AM43 °FClear.6 mph81%29.92 "Hg10 mi
2:30 AM45 °FClear.8 mph76%29.92 "Hg10 mi
2:00 AM45 °FClear.8 mph76%29.92 "Hg10 mi
1:30 AM46 °FClear.8 mph76%29.92 "Hg10 mi
1:00 AM46 °FClear.6 mph76%29.92 "Hg10 mi
12:30 AM45 °FClear.8 mph81%29.92 "Hg10 mi
12:00 AM43 °FClear.3 mph87%29.92 "Hg10 mi
11:30 PM
Mon, Apr 20
45 °FClear.6 mph81%29.92 "Hg10 mi
11:00 PM45 °FClear.6 mph76%29.95 "Hg10 mi
10:30 PM48 °FClear.8 mph71%29.95 "Hg10 mi
10:00 PM46 °FClear.8 mph76%29.95 "Hg10 mi
9:30 PM50 °FClear.6 mph67%29.95 "Hg10 mi
9:00 PM52 °FSunny.3 mph58%29.92 "Hg10 mi
8:30 PM59 °FSunny.1 mph45%29.92 "Hg10 mi
8:00 PM61 °FSunny.1 mph42%29.92 "Hg10 mi
7:30 PM66 °FSunny.3 mph30%29.92 "Hg10 mi
7:00 PM68 °FSunny.8 mph28%29.92 "Hg10 mi
6:30 PM68 °FSunny.8 mph28%29.92 "Hg10 mi
6:00 PM68 °FPassing clouds.10 mph30%29.92 "HgN/A
5:30 PM70 °FSunny.13 mph29%29.92 "Hg10 mi
5:00 PM70 °FSunny.10 mph29%29.92 "Hg10 mi
4:30 PM70 °FPassing clouds.10 mph29%29.92 "HgN/A
4:00 PM70 °FPassing clouds.10 mph29%29.92 "HgN/A
3:30 PM70 °FPassing clouds.10 mph29%29.92 "HgN/A
3:00 PM70 °FPassing clouds.10 mph29%29.92 "HgN/A
2:30 PM70 °FPassing clouds.13 mph29%29.92 "HgN/A
2:00 PM66 °FPassing clouds.13 mph32%29.92 "HgN/A
1:30 PM70 °FSunny.17 mph29%29.92 "Hg10 mi
1:00 PM68 °FSunny.10 mph33%29.92 "Hg10 mi
12:30 PM68 °FPassing clouds.10 mph35%29.95 "HgN/A
12:00 PM66 °FScattered clouds.10 mph37%29.95 "HgN/A
Weather by CustomWeather, © 2015

See weather overviewHow to use our weather pages